Regional Weather Roundup
Issued by NWS

Home | Current Version | Previous Version | Text Only | Print | Product List | Glossary Off
Versions: 1 2 3 4 5 6 7 8 9 10 11 12 13 14 15 16 17 18 19 20 21 22 23 24 25 26 27 28 29 30 31 32 33 34 35 36 37 38 39 40 41 42 43 44 45 46 47 48 49 50

000
ASUS43 KDMX 261603
RWRIA

WEATHER ROUNDUP FOR IOWA
NATIONAL WEATHER SERVICE DES MOINES IA
1100 AM CDT THU MAY 26 2016

NOTE: "FAIR" INDICATES FEW OR NO CLOUDS BELOW 12,000 FEET WITH NO
SIGNIFICANT WEATHER AND/OR OBSTRUCTIONS TO VISIBILITY.

* - THESE STATIONS ARE NOT NWS STATIONS...THUS NOT UNDER NWS
QUALITY CONTROL.  THEY ALSO DO NOT REPORT WEATHER SUCH
AS PRECIPITATION OR FOG.

IAZ001>003-012>014-020>022-031>034-043>046-261700-
   NORTHWEST IOWA

CITY           SKY/WX    TMP DP  RH WIND       PRES   REMARKS
CARROLL *      SUNNY     73  63  68 S7        29.89R
CHEROKEE *     SUNNY     70  61  73 W3        29.88S
DENISON *      SUNNY     73  54  49 CALM      29.88R
LE MARS *      MOSUNNY   70  57  64 CALM      29.87F
ORANGE CITY *  SUNNY     70  55  60 CALM      29.89R
SHELDON *      SUNNY     70  52  52 N5        29.88R
SIOUX CITY     CLOUDY    73  60  63 VRB3      29.87F
SPENCER        SUNNY     71  55  56 CALM      29.89R
STORM LAKE *   SUNNY     70  61  73 W7        29.90R
$$

IAZ055>058-069>071-079>083-090>094-261700-
   SOUTHWEST IOWA

CITY           SKY/WX    TMP DP  RH WIND       PRES   REMARKS
ATLANTIC *     SUNNY     75  63  64 E5        29.88F
AUDUBON *        N/A     75  64  69 CALM      29.90S
CLARINDA *       N/A     79  66  65 MISG      29.88S HX  81
COUNCIL BLFS * SUNNY     75  59  57 VRB5      29.87F
CRESTON *      SUNNY     75  66  73 SE6       29.90F
HARLAN  *      MOSUNNY   75  61  60 S5        29.92R
LAMONI         CLOUDY    76  65  68 SE7       29.90S
RED OAK *      SUNNY     77  66  69 VRB5G13   29.87F
SHENANDOAH *   SUNNY     79  68  69 E7        29.86F HX  81
$$

IAZ047>049-059>061-072>074-084-261700-
   CENTRAL IOWA

CITY           SKY/WX    TMP DP  RH WIND       PRES   REMARKS
AMES           SUNNY     73  62  68 S9        29.89R
ANKENY *       SUNNY     73  63  68 S6G13     29.89F
BOONE *        SUNNY     72  63  73 S9        29.89R
CHARITON *     SUNNY     75  64  69 SE7       29.90F
DES MOINES     MOSUNNY   74  61  63 SE8       29.89S
GRINNELL*      SUNNY     72  61  68 S8        29.92R
KNOXVILLE *    SUNNY     72  63  73 SE9       29.89F
NEWTON *       SUNNY     72  64  78 SE9       29.90F
PERRY *          N/A     72  66  83 S9        29.89S
$$

IAZ004>006-015-016-023>025-035-036-261700-
   NORTH CENTRAL IOWA

CITY           SKY/WX    TMP DP  RH WIND       PRES   REMARKS
ALGONA *       SUNNY     72  61  68 W13       29.88S
CLARION *      SUNNY     72  63  73 SW6G12    29.89R
ESTHERVILLE    SUNNY     70  55  59 W7        29.87F
FORT DODGE *   SUNNY     72  61  68 S8        29.89S
MASON CITY     SUNNY     72  61  68 SW13      29.89S
FOREST CITY *  MOSUNNY   70  59  68 W10       29.88S
WEBSTER CITY * SUNNY     72  63  73 SW6       29.87S
IOWA FALLS *     N/A     73  63  68 S9        29.91R
$$

IAZ007>011-017>019-026>030-037>042-050>054-066-261700-
   NORTHEAST IOWA

CITY           SKY/WX    TMP DP  RH WIND       PRES   REMARKS
CEDAR RAPIDS   SUNNY     72  62  71 S9        29.91S
CHARLES CITY * SUNNY     72  64  78 SW10      29.89R
CLINTON *      CLOUDY    72  64  76 SW7       29.92S
DECORAH *      SUNNY     70  61  73 VRB6G13   29.88R
DUBUQUE        MOSUNNY   73  59  61 S13       29.91R
MONTICELLO *   CLOUDY    75  59  57 SE10      29.91R
OELWEIN *      MOSUNNY   70  63  78 S12       29.91R
WATERLOO       CLOUDY    73  60  63 S13       29.90R
$$

IAZ064-065-067-068-078-261700-
   EAST CENTRAL IOWA

CITY           SKY/WX    TMP DP  RH WIND       PRES   REMARKS
DAVENPORT      PTSUNNY   74  62  66 SW6       29.92S
IOWA CITY      SUNNY     75  60  59 VRB3      29.93S
MT. PLEASANT * MOSUNNY   81  68  65 S9        29.91S HX  83
MUSCATINE *    MOSUNNY   77  64  65 VRB7G14   29.91S
QUAD CITIES    PTSUNNY   79  65  62 S10       29.90F HX  81
$$

IAZ062-063-075>077-085>089-095>099-261700-
   SOUTHEAST IOWA

CITY           SKY/WX    TMP DP  RH WIND       PRES   REMARKS
BURLINGTON     PTSUNNY   77  67  71 S10       29.91F
FAIRFIELD *      N/A    N/A N/A N/A MISG        N/A
FORT MADISON * PTSUNNY   77  68  73 S8        29.92F
KEOKUK *       MOSUNNY   79  66  65 S8        29.91F HX  81
OSKALOOSA *      N/A     73  61  64 SE9       29.91F
OTTUMWA        CLOUDY    74  64  71 SE7       29.91S
WASHINGTON *   SUNNY     77  73  88 S8G14     29.92F
$$

ABBREVIATIONS USED IN REMARKS
   TC - TEMPERATURES IN CELSIUS
  WCI - WIND CHILL INDEX
   HX - HEAT INDEX
  VSB - VISIBILITY
$$





USA.gov is the U.S. government's official web portal to all federal, state and local government web resources and services.